Location: Saratoga Springs
(43.0831°N, 73.7850°W)
Time: 18:39:42
(UTC-04:00)

Transit 4A - All Passes

Search period start: 16 April 2024 00:00
Search period end: 26 April 2024 00:00
Orbit: 871 x 972 km, 66.8° (Epoch: 16 April)

Date Brightness Start Highest point End Pass type
(mag) Time Alt. Az. Time Alt. Az. Time Alt. Az.
16 Apr - 00:33:07 10° NW 00:38:08 31° WSW 00:43:13 10° S visible
16 Apr - 13:53:54 10° S 13:59:41 50° ESE 14:05:22 10° NE daylight
16 Apr - 15:40:57 10° WSW 15:46:14 31° NW 15:51:26 10° NNE daylight
16 Apr - 21:10:22 10° N 21:13:41 15° NE 21:16:59 10° ENE visible
16 Apr - 22:55:23 10° NNW 23:01:11 65° ENE 23:07:00 10° SE visible
17 Apr - 00:42:46 10° WNW 00:46:57 21° WSW 00:51:10 10° SSW visible
17 Apr - 12:22:11 10° ESE 12:23:20 11° E 12:24:30 10° E daylight
17 Apr - 14:02:39 10° SSW 14:08:40 74° ESE 14:14:33 10° NE daylight
17 Apr - 15:50:52 10° W 15:55:34 23° NW 16:00:12 10° N daylight
17 Apr - 21:18:57 10° N 21:23:10 20° NE 21:27:22 10° E visible
17 Apr - 23:04:24 10° NNW 23:10:16 88° WSW 23:16:09 10° SSE visible
18 Apr - 00:53:06 10° WNW 00:55:43 13° WSW 00:58:20 10° SW visible
18 Apr - 12:28:21 10° SE 12:32:04 17° ESE 12:35:45 10° ENE daylight
18 Apr - 14:11:41 10° SW 14:17:42 78° WNW 14:23:38 10° NNE daylight
18 Apr - 16:01:04 10° W 16:05:00 18° NW 16:08:53 10° N daylight
18 Apr - 21:27:41 10° NNW 21:32:33 26° NE 21:37:25 10° E visible
18 Apr - 23:13:32 10° NW 23:19:17 61° WSW 23:25:03 10° SSE visible
19 Apr - 12:36:01 10° SSE 12:40:52 26° ESE 12:45:38 10° NE daylight
19 Apr - 14:20:56 10° SW 14:26:50 55° NW 14:32:37 10° NNE daylight
19 Apr - 16:11:38 10° WNW 16:14:30 14° NNW 16:17:22 10° N daylight
19 Apr - 21:36:29 10° NNW 21:41:51 36° NE 21:47:13 10° ESE visible
19 Apr - 23:22:47 10° NW 23:28:12 41° WSW 23:33:39 10° S visible
20 Apr - 12:44:13 10° S 12:49:43 38° ESE 12:55:08 10° NE daylight
20 Apr - 14:30:27 10° WSW 14:36:01 39° NW 14:41:31 10° NNE daylight
20 Apr - 16:22:58 10° NW 16:24:07 11° NNW 16:25:16 10° NNW daylight
20 Apr - 20:00:47 10° N 20:03:17 13° NNE 20:05:46 10° NE daylight
20 Apr - 21:45:23 10° NNW 21:51:04 50° NE 21:56:45 10° SE visible
20 Apr - 23:32:15 10° NW 23:37:04 27° WSW 23:41:55 10° SSW visible
21 Apr - 12:52:47 10° SSW 12:58:39 56° ESE 13:04:25 10° NE daylight
21 Apr - 14:40:12 10° WSW 14:45:18 29° NW 14:50:21 10° NNE daylight
21 Apr - 20:09:12 10° N 20:12:49 16° NE 20:16:26 10° ENE visible
21 Apr - 21:54:21 10° NNW 22:00:11 72° ENE 22:06:04 10° SE visible
21 Apr - 23:42:03 10° WNW 23:45:52 18° WSW 23:49:42 10° SW visible
22 Apr - 11:19:55 10° SE 11:22:14 12° ESE 11:24:32 10° ENE daylight
22 Apr - 13:01:38 10° SSW 13:07:39 82° ESE 13:13:33 10° NNE daylight
22 Apr - 14:50:12 10° W 14:54:40 21° NW 14:59:06 10° N daylight
22 Apr - 20:17:50 10° N 20:22:16 22° NE 20:26:42 10° E visible
22 Apr - 22:03:24 10° NNW 22:09:15 79° WSW 22:15:07 10° SSE visible
22 Apr - 23:52:52 10° W 23:54:36 11° WSW 23:56:20 10° WSW visible
23 Apr - 11:26:51 10° SSE 11:30:58 19° ESE 11:35:03 10° ENE daylight
23 Apr - 13:10:44 10° SW 13:16:42 70° WNW 13:22:36 10° NNE daylight
23 Apr - 15:00:30 10° WNW 15:04:07 16° NW 15:07:43 10° N daylight
23 Apr - 20:26:35 10° NNW 20:31:37 29° NE 20:36:40 10° ESE visible
23 Apr - 22:12:34 10° NW 22:18:13 54° WSW 22:23:56 10° S visible
24 Apr - 11:34:43 10° SSE 11:39:47 29° ESE 11:44:46 10° NE daylight
24 Apr - 13:20:04 10° SW 13:25:51 49° NW 13:31:33 10° NNE daylight
24 Apr - 15:11:11 10° NW 15:13:39 13° NNW 15:16:06 10° N daylight
24 Apr - 18:51:36 10° NNE 18:52:49 11° NNE 18:54:03 10° NE daylight
24 Apr - 20:35:25 10° NNW 20:40:53 40° NE 20:46:22 10° ESE visible
24 Apr - 22:21:52 10° NW 22:27:08 36° WSW 22:32:27 10° S visible
25 Apr - 11:43:03 10° S 11:48:40 43° ESE 11:54:11 10° NE daylight
25 Apr - 13:29:38 10° WSW 13:35:04 35° NW 13:40:26 10° NNE daylight
25 Apr - 18:59:31 10° N 19:02:25 14° NNE 19:05:19 10° ENE daylight
25 Apr - 20:44:19 10° NNW 20:50:04 56° NE 20:55:51 10° SE visible
25 Apr - 22:31:24 10° NW 22:35:58 24° WSW 22:40:35 10° SSW visible
